Location: Wells
(51.2093°N, 2.6446°W)
Time: 01:32:59
(UTC+01:00)

STARS - Pass Details

Date: 15 March 2026
Orbit: 575 x 588 km, 98.1° (Epoch: 13 April)

Event Time Altitude Azimuth Distance (km) Brightness Sun altitude
Rises 03:50:24 0° 1° (N) 2,804 ? -24.1°
Reaches altitude 10° 03:53:14 10° 340° (NNW) 1,898 ? -23.7°
Enters shadow 03:54:04 13° 330° (NNW) 1,714 ? -23.6°
